Temperature
27 27 26 26 29 30 30 30 30 30 30 29 28 27 26 26 24 22 21 20 20 19 19 19 19 18 18 18 18 18 18 18 18 18 18 18 18 18 18 18 18 18 18 18 18 18 18 18 18
27 26 27 29 30 29 29 30 30 30 30 29 28 27 26 25 23 22 21 20 20 19 18 19 19 18 18 18 18 18 18 18 18 18 18 18 18 18 18 18 18 18 18 18 18 18 18 18 18
28 27 30 32 31 30 30 31 31 31 30 29 28 26 25 24 23 22 21 21 20 19 19 19 19 19 18 18 18 18 18 18 18 18 18 18 18 18 18 18 18 18 18 18 18 18 18 18 18
28 30 32 32 31 32 32 31 31 31 30 29 28 26 24 24 23 22 21 21 20 19 19 19 19 19 18 18 18 18 18 18 18 18 18 18 18 18 18 18 18 18 18 18 18 18 18 18 18
30 32 33 32 32 32 33 32 31 31 30 28 26 25 24 23 23 22 22 21 21 19 19 19 19 19 19 18 18 18 18 18 18 18 18 18 18 18 18 18 18 18 18 18 18 18 18 18 18
32 34 33 32 32 33 33 32 32 31 30 28 26 25 24 23 23 22 22 22 21 20 19 20 19 19 19 19 18 18 18 18 18 18 18 18 18 18 18 18 18 18 18 18 18 18 18 18 18
33 34 33 32 32 32 33 32 32 31 30 29 27 25 24 23 23 22 22 22 21 20 19 19 19 19 19 19 19 19 18 18 18 18 18 18 18 18 18 18 18 18 18 18 18 18 18 18 18
35 34 33 33 32 32 33 32 31 31 30 29 28 26 24 23 23 22 22 22 21 20 20 19 19 19 19 19 19 19 19 19 18 18 18 18 18 18 18 18 18 18 18 18 18 18 18 18 18
35 34 33 33 33 33 33 32 31 30 30 29 28 26 24 24 23 23 22 21 21 21 20 20 19 19 18 18 19 18 18 18 18 18 18 18 18 18 18 18 18 18 18 18 18 18 18 18 18
36 34 34 35 35 34 33 33 32 31 30 28 26 25 24 24 23 23 22 22 21 20 20 20 19 19 19 19 18 18 18 18 18 18 18 18 18 18 18 18 18 18 18 18 18 18 18 18 18
36 35 35 35 35 34 34 33 33 32 30 28 26 25 24 24 23 23 23 22 21 21 20 20 20 19 19 19 19 18 18 18 18 18 18 18 18 18 18 18 18 18 18 18 18 18 18 18 18
36 36 35 35 34 34 34 33 33 32 30 28 26 25 25 24 24 23 23 22 21 21 20 20 19 19 19 19 19 19 19 19 18 18 18 18 18 18 18 18 18 18 18 18 18 18 18 18 18
36 36 35 34 34 34 33 33 32 31 29 28 27 26 25 25 24 24 23 22 21 21 20 20 19 19 19 19 19 19 19 19 19 18 18 18 18 18 18 18 18 18 18 18 18 18 18 18 18
36 36 35 35 34 33 33 32 32 31 29 28 27 26 26 25 25 24 23 22 22 21 20 20 19 19 19 19 19 19 19 19 19 18 18 18 18 18 18 18 18 18 18 18 18 18 18 18 18
35 35 35 35 34 33 32 32 32 30 29 28 27 27 26 25 25 24 23 22 22 21 20 20 19 19 19 19 19 19 19 19 19 19 19 18 18 18 18 18 18 18 18 18 18 18 18 18 18
36 35 33 35 35 34 32 31 32 31 30 29 28 27 26 25 25 24 23 22 22 21 21 20 20 19 19 19 19 19 19 19 19 19 19 18 18 18 18 18 18 18 18 18 18 18 18 18 18
34 33 33 34 35 34 33 32 32 31 30 29 29 27 27 25 25 24 23 23 22 21 21 20 20 20 20 19 19 19 19 19 19 19 19 19 18 18 18 18 18 18 18 18 18 18 18 18 18
34 34 34 34 34 34 33 32 33 32 32 30 29 28 27 26 25 24 23 23 22 21 21 20 20 20 19 19 19 19 19 19 19 19 19 19 18 18 18 18 18 18 18 18 18 18 18 18 18
35 34 34 34 35 34 34 33 33 33 32 31 30 29 27 26 25 24 24 23 22 21 21 20 20 20 19 19 19 19 19 19 19 19 19 19 19 19 19 19 18 18 18 18 18 18 18 18 18
35 34 34 34 35 34 33 33 34 33 33 32 31 30 28 27 26 25 24 23 22 21 21 20 20 20 20 20 19 19 19 19 19 19 19 19 19 19 19 19 19 18 18 18 18 18 18 18 18
34 34 34 34 34 34 33 32 33 33 33 32 31 30 29 27 26 25 24 23 22 21 21 21 21 20 20 20 20 19 19 19 19 19 19 19 19 19 19 19 19 19 18 18 18 18 18 18 18
33 35 35 34 34 33 33 31 32 32 33 33 32 31 30 28 27 25 24 23 22 22 21 21 21 21 20 20 20 19 19 19 20 19 19 19 19 19 19 19 19 19 19 18 18 18 18 18 18
34 35 34 34 33 33 33 32 31 32 31 32 32 31 30 29 27 26 25 24 23 22 21 21 21 21 21 20 20 20 19 19 19 19 19 19 19 19 19 19 19 19 19 18 18 18 18 18 18
34 34 34 34 33 32 33 32 31 32 32 33 33 31 30 29 28 27 25 24 23 23 22 21 21 21 21 21 20 20 20 20 19 19 19 19 19 19 19 19 19 19 19 18 18 18 18 18 18
33 32 31 31 31 31 33 33 31 33 34 33 33 32 31 30 28 27 26 25 24 23 22 22 21 21 21 21 20 20 20 20 19 19 19 19 19 19 19 19 19 19 18 18 18 18 18 18 18
32 32 31 30 30 31 33 32 33 34 34 33 32 32 31 30 29 28 26 25 24 23 23 22 22 21 21 21 20 20 20 20 19 19 19 19 19 19 19 19 19 19 18 18 18 18 18 17 17
32 32 33 32 32 31 32 32 33 34 33 33 32 32 31 30 29 28 27 26 24 24 23 22 22 21 21 20 20 20 20 20 19 19 19 19 19 19 19 19 19 18 18 18 18 18 17 17 17
33 33 33 32 30 30 31 32 32 32 32 33 32 32 31 30 29 28 27 26 25 24 23 22 22 21 21 20 20 20 20 20 20 19 19 19 19 19 18 18 18 18 18 18 18 18 17 17 17
32 32 32 32 31 30 30 31 33 32 33 32 32 31 30 30 29 28 27 26 25 24 23 22 22 21 21 20 20 20 19 19 19 19 19 19 19 18 18 18 18 18 18 18 17 17 17 17 17
33 32 32 30 30 30 30 30 33 33 33 32 31 30 30 29 28 27 26 25 24 23 23 22 21 21 20 20 20 19 19 19 19 19 19 19 18 18 18 18 17 17 17 17 17 17 17 17 16
Wind_Speed
9 11 9 6 1 9 17 17 17 16 17 17 18 16 19 18 13 13 11 15 17 16 17 17 16 17 16 16 16 17 18 18 18 18 18 18 18 19 19 19 19 19 19 19 19 18 18 18 16
10 12 9 3 5 13 16 15 15 16 16 17 20 21 21 19 18 15 14 14 16 17 18 17 17 17 16 16 16 17 17 17 17 17 17 17 17 18 18 18 18 18 18 18 18 18 17 16 15
11 14 4 4 13 15 16 14 14 14 15 17 19 19 15 15 16 13 14 15 17 18 19 17 17 17 17 17 16 16 17 17 17 17 17 17 17 17 17 17 17 17 17 17 17 16 15 14 12
8 5 3 10 18 17 16 14 14 15 15 16 16 14 15 16 16 16 16 16 18 18 19 17 17 17 16 16 16 16 16 16 16 16 16 16 16 16 16 17 16 16 15 15 15 15 14 12 10
9 2 9 14 18 17 15 15 15 16 17 20 20 18 17 17 17 17 15 16 17 18 18 17 17 17 16 16 16 16 16 15 15 15 15 15 15 15 15 15 15 15 14 14 14 13 12 10 8
5 1 8 14 17 16 15 15 16 17 18 20 20 19 15 15 14 15 14 15 16 18 18 17 17 17 16 16 15 15 15 15 15 14 14 14 14 14 14 14 14 14 13 13 12 12 11 9 6
3 4 11 15 16 16 15 15 16 15 15 16 18 17 14 13 13 14 13 14 15 17 17 16 16 15 15 15 15 14 14 14 13 13 12 13 13 13 13 13 13 12 12 11 11 10 9 7 4
1 4 11 14 15 15 15 15 16 15 14 13 14 13 14 14 14 14 13 14 13 13 13 15 15 15 15 14 13 14 13 12 12 11 11 11 12 12 13 12 11 11 10 10 9 8 7 5 3
2 5 10 14 15 14 15 16 16 15 15 15 17 19 18 17 16 14 13 13 11 11 10 12 12 12 13 14 14 13 12 11 10 10 10 10 9 10 10 11 10 10 9 8 7 6 5 4 4
5 8 12 13 15 15 14 13 14 15 16 18 19 19 19 16 15 13 12 12 11 10 10 9 9 9 11 12 12 11 10 10 8 8 9 8 6 8 11 11 10 9 8 7 6 6 6 5 5
8 10 10 14 15 14 13 12 12 14 15 17 19 19 17 15 13 11 11 12 11 9 9 10 8 6 7 8 8 7 8 7 7 6 7 6 6 8 10 9 9 8 8 7 7 7 6 5 4
7 10 10 11 12 11 12 13 14 16 17 19 19 18 16 15 13 12 11 12 10 9 9 9 9 6 4 5 6 6 6 6 6 5 4 5 3 3 5 5 7 7 6 5 4 4 3 2 1
6 8 10 9 10 11 12 12 15 18 18 19 19 17 15 14 13 12 12 13 10 9 10 8 7 6 4 4 1 5 5 5 6 5 4 4 3 3 3 2 1 3 4 4 2 2 2 1 1
4 6 8 10 10 10 8 9 13 17 18 18 17 15 14 14 14 13 12 12 11 10 10 10 8 7 5 2 1 2 4 5 5 5 5 3 4 4 3 1 0 0 2 2 2 2 1 1 0
3 5 7 8 10 10 9 7 12 15 16 16 15 13 13 13 12 13 12 11 11 10 10 10 9 8 5 4 3 4 4 6 4 5 5 4 4 3 2 1 2 1 1 2 1 1 1 2 2
7 6 6 7 8 10 7 7 13 15 14 14 14 13 13 12 11 12 13 11 10 10 9 8 9 10 7 4 2 1 2 4 4 5 6 5 4 4 2 2 1 2 3 2 1 1 1 1 1
9 8 7 7 7 7 7 8 14 14 14 14 13 13 13 13 12 12 13 12 11 10 9 7 7 9 8 6 3 2 2 2 3 5 5 6 5 4 3 1 1 2 1 1 2 1 1 2 2
8 9 8 7 7 7 8 9 12 14 13 15 15 14 13 13 13 13 13 12 11 10 9 7 7 7 7 5 4 2 3 3 3 4 5 6 5 4 3 2 2 2 1 1 1 1 2 2 3
6 5 5 5 6 5 7 9 11 12 11 13 14 15 14 14 14 13 13 13 12 11 10 8 7 7 5 4 4 4 3 3 3 4 6 6 6 5 4 2 2 2 1 1 2 2 3 3 2
9 7 6 5 7 5 5 7 11 11 11 12 13 14 15 15 15 14 13 13 12 11 10 9 8 8 7 5 4 3 3 4 4 3 5 7 7 6 6 4 3 3 2 2 3 3 3 3 1
10 9 7 6 7 8 6 6 9 11 10 11 12 13 15 16 16 15 14 13 13 13 12 10 8 8 7 6 4 4 3 3 2 3 4 5 7 6 5 4 3 3 3 3 3 3 4 3 2
10 9 8 8 8 7 8 6 7 10 11 12 11 12 13 16 16 16 15 14 13 13 12 9 9 8 7 6 5 5 4 4 4 3 3 4 4 4 4 4 4 3 3 2 3 3 3 3 3
9 6 9 10 10 10 8 6 5 8 8 10 11 12 12 15 16 16 16 15 14 14 12 11 9 8 7 6 5 5 4 4 3 3 3 3 3 4 4 4 4 3 3 2 3 2 3 2 3
8 8 10 11 11 11 10 7 5 6 7 8 11 12 12 13 15 15 15 14 13 13 12 12 10 8 8 7 6 5 4 3 2 2 2 3 3 3 3 4 3 3 3 3 3 3 3 3 3
11 10 8 9 10 10 9 7 4 5 6 5 8 10 12 11 12 12 13 14 13 13 12 11 11 9 8 7 6 5 4 3 3 2 3 3 2 3 3 4 3 3 3 3 2 2 2 2 3
14 15 11 8 8 8 10 7 6 7 6 6 5 6 9 11 12 12 14 14 14 14 12 11 11 9 8 8 6 5 4 4 3 3 2 2 2 2 3 3 3 3 3 3 2 2 2 1 1
14 15 15 12 11 9 7 7 8 8 7 7 7 6 7 8 10 11 12 14 13 13 12 11 11 10 9 7 6 4 4 3 2 1 1 1 1 1 1 2 2 2 2 1 2 1 0 0 0
15 14 11 10 8 10 8 9 8 12 10 8 6 6 6 8 9 10 10 11 11 10 9 9 10 9 7 7 6 5 4 3 2 1 1 0 1 1 1 1 1 1 1 1 1 1 1 1 1
16 16 12 9 9 10 7 2 4 10 10 9 7 7 6 7 8 8 9 10 11 10 10 8 8 8 8 6 5 4 4 4 3 2 2 2 1 1 0 1 1 1 1 1 2 2 1 1 1
16 17 15 10 8 8 8 2 5 8 9 9 8 7 7 7 7 8 8 9 9 10 9 8 8 7 7 6 5 4 3 3 3 2 1 2 2 1 1 1 1 1 1 1 2 2 1 1 1
Wind_Direction
255 242 235 245 194 73 67 66 71 71 68 63 63 67 61 57 76 92 107 103 102 101 103 98 94 94 92 90 90 89 88 87 87 87 87 88 89 90 91 91 92 94 94 95 95 94 94 94 96
265 254 239 244 77 76 70 69 71 73 77 76 73 75 73 74 86 100 105 105 106 105 102 97 97 95 93 92 91 90 90 89 88 87 87 88 89 91 92 93 92 93 94 94 95 94 95 95 97
259 255 266 77 67 74 79 78 80 81 83 83 76 69 71 85 91 105 115 114 107 102 101 100 99 97 96 94 92 91 91 90 89 88 88 88 90 92 94 94 93 93 93 95 96 96 97 96 96
264 239 104 78 75 73 80 89 92 88 83 85 86 79 74 89 101 113 120 115 112 108 105 104 101 98 97 96 94 93 93 92 91 91 91 90 92 94 94 95 94 94 94 95 97 98 98 97 95
248 261 90 81 80 79 80 86 87 86 83 82 87 92 90 94 107 115 118 115 111 110 110 109 106 103 101 99 98 96 96 96 95 94 94 94 95 96 97 96 96 95 96 97 98 98 98 98 94
271 156 87 87 85 84 86 90 91 91 95 101 101 101 100 111 116 117 113 111 112 113 113 115 112 110 107 105 103 102 99 99 99 99 98 99 98 98 99 99 97 97 98 99 100 100 99 100 95
267 70 93 95 91 86 84 87 88 89 94 101 109 108 114 119 114 113 114 111 110 115 122 125 124 118 114 111 109 109 106 105 107 107 108 108 107 106 104 102 101 101 102 103 103 104 105 107 107
262 81 90 95 95 91 90 88 90 89 84 99 115 115 128 130 127 121 114 110 110 114 123 127 129 131 129 121 119 119 118 118 120 122 123 122 122 120 118 111 108 108 109 110 112 114 117 122 138
4 79 89 96 101 105 104 98 98 99 91 76 86 113 128 134 129 125 121 116 110 110 114 121 130 142 137 128 130 133 133 137 138 140 145 148 150 139 131 113 121 120 121 125 130 134 140 153 195
71 75 81 95 103 108 107 109 117 110 101 95 99 112 127 134 130 132 132 126 121 121 123 120 126 137 131 127 140 149 142 151 162 148 160 171 147 134 122 131 139 141 143 149 163 172 185 202 203
79 86 86 93 100 107 109 110 112 108 111 117 123 130 136 134 135 137 131 122 122 130 127 125 120 108 119 129 143 136 130 148 146 139 151 142 136 137 138 152 156 167 171 182 179 197 210 208 209
89 88 83 88 96 101 101 97 91 90 103 120 129 136 140 145 143 139 132 126 132 134 123 120 120 108 87 101 125 140 140 141 130 150 155 134 129 125 132 150 164 168 168 176 175 192 199 210 249
104 104 104 100 98 91 92 93 98 102 109 120 131 141 149 148 143 139 138 134 136 135 127 118 121 115 100 82 116 125 121 125 133 136 125 129 128 107 109 113 136 157 152 161 181 161 150 166 268
117 122 121 121 108 103 99 107 111 116 121 128 137 147 153 144 146 142 141 136 145 149 135 134 135 123 121 135 103 102 122 126 131 131 134 135 112 109 112 120 160 120 130 127 170 166 157 178 267
189 173 141 135 132 124 121 120 121 125 132 138 145 152 148 146 149 147 144 146 153 147 135 139 143 139 151 164 188 153 151 150 136 131 134 137 129 131 145 164 202 171 178 165 192 241 203 212 209
217 207 170 155 148 138 138 138 132 139 146 148 154 153 149 149 157 151 146 152 148 144 141 153 154 146 155 174 206 163 147 134 147 156 155 160 156 173 195 202 185 188 220 194 197 234 251 258 245
213 210 191 168 159 155 152 150 143 153 157 154 155 155 154 156 161 153 154 158 152 144 145 154 145 148 160 169 179 192 150 150 171 168 162 170 185 192 202 210 102 247 239 230 252 156 259 275 274
221 204 194 170 166 174 154 149 153 162 162 157 161 162 161 163 165 158 158 157 152 147 149 157 155 151 160 167 176 207 192 191 194 176 173 173 190 198 203 192 176 259 253 266 293 307 283 274 271
254 241 200 168 156 201 172 160 158 163 165 159 163 163 166 166 163 161 162 158 156 153 154 164 167 160 166 176 182 197 193 205 206 193 179 184 196 198 210 225 178 235 250 261 273 258 259 251 254
250 247 229 190 161 214 207 177 162 165 171 166 165 167 168 166 165 163 165 162 161 159 161 167 174 170 181 187 192 202 202 219 208 191 168 194 199 201 211 202 220 215 221 233 266 270 272 273 252
242 243 241 218 185 202 211 212 177 171 173 164 168 172 170 169 169 167 169 168 168 169 170 178 179 175 188 184 194 213 195 237 215 183 187 204 205 210 228 187 215 232 232 219 237 254 262 272 281
236 243 250 247 236 226 210 219 191 182 178 172 174 173 173 169 170 170 172 174 174 173 174 173 172 175 182 185 201 209 206 220 219 192 190 197 200 212 212 204 209 225 246 218 237 225 247 258 265
240 248 251 252 256 258 227 230 209 183 189 181 177 174 176 171 172 173 176 176 177 176 175 172 168 174 179 189 202 212 222 222 214 188 183 188 199 209 216 205 200 213 238 239 252 255 249 252 257
234 242 247 250 253 250 242 236 208 187 181 182 177 175 177 176 173 172 174 171 176 177 176 174 171 176 178 188 199 207 224 230 242 197 179 198 206 207 213 209 200 206 230 238 247 251 254 252 259
219 228 226 226 230 238 237 235 190 173 164 158 165 170 176 176 169 169 170 170 175 176 176 174 170 177 179 186 199 201 217 225 242 231 215 218 211 208 209 216 207 213 222 227 232 242 261 261 263
211 227 234 235 232 225 221 218 181 153 131 123 129 144 158 167 168 170 173 172 179 179 175 173 168 173 178 186 194 200 203 218 229 226 233 221 234 219 192 195 200 201 215 226 202 232 238 240 250
215 227 241 249 261 256 222 191 180 158 153 154 155 155 157 159 161 167 172 170 178 177 174 174 165 166 174 182 185 190 194 206 218 203 220 254 266 252 132 162 180 186 191 208 166 167 218 184 214
235 228 237 248 259 261 239 211 189 168 168 168 158 160 158 155 157 155 157 158 166 166 160 162 158 161 166 173 182 183 180 188 198 173 177 281 26 11 64 87 136 145 170 160 164 154 169 146 119
220 229 235 246 254 259 262 258 147 153 158 161 159 143 134 139 144 142 142 146 147 145 147 146 149 153 159 168 169 172 167 165 168 172 153 141 118 94 71 93 127 152 162 167 159 160 159 153 116
226 229 228 234 245 263 267 235 124 131 144 146 141 128 122 125 126 125 126 133 137 139 144 147 150 153 154 151 148 151 142 146 154 149 129 119 120 106 86 70 85 109 122 145 152 174 158 137 135
Height
1482 1481 1481 1484 1482 1484 1490 1488 1486 1488 1491 1494 1495 1498 1503 1505 1513 1528 1531 1531 1532 1531 1530 1532 1533 1533 1534 1535 1536 1536 1537 1538 1538 1539 1540 1541 1541 1542 1543 1544 1544 1545 1546 1547 1548 1549 1550 1551 1552
1482 1482 1485 1483 1483 1497 1499 1490 1491 1492 1495 1498 1500 1504 1509 1515 1520 1527 1531 1533 1534 1534 1534 1535 1535 1536 1537 1538 1539 1540 1540 1541 1542 1542 1543 1544 1545 1545 1546 1547 1548 1549 1549 1550 1551 1552 1553 1554 1555
1482 1483 1484 1479 1484 1496 1498 1492 1492 1494 1497 1501 1506 1510 1515 1521 1526 1529 1533 1535 1536 1537 1537 1537 1538 1539 1540 1541 1542 1543 1544 1544 1545 1546 1546 1547 1548 1548 1549 1550 1551 1551 1552 1553 1554 1555 1556 1557 1558
1484 1483 1481 1481 1490 1488 1489 1491 1493 1496 1499 1503 1508 1516 1522 1526 1530 1532 1535 1537 1538 1539 1539 1540 1541 1542 1543 1544 1545 1546 1547 1547 1548 1549 1549 1550 1551 1552 1552 1553 1554 1554 1555 1556 1557 1557 1558 1560 1561
1485 1482 1480 1488 1490 1488 1488 1491 1495 1498 1502 1508 1514 1521 1527 1531 1533 1535 1538 1539 1541 1542 1542 1543 1544 1544 1545 1546 1548 1549 1549 1550 1551 1552 1552 1553 1554 1555 1555 1556 1556 1557 1558 1559 1559 1560 1561 1562 1563
1483 1477 1486 1495 1493 1490 1491 1494 1497 1501 1506 1512 1518 1524 1531 1535 1536 1538 1540 1541 1543 1544 1544 1545 1546 1547 1548 1549 1550 1551 1552 1553 1554 1554 1555 1556 1557 1557 1558 1559 1559 1560 1561 1561 1562 1563 1564 1565 1566
1481 1477 1485 1490 1494 1494 1493 1496 1499 1503 1507 1511 1518 1525 1533 1536 1538 1540 1542 1544 1546 1547 1547 1548 1549 1550 1551 1552 1553 1554 1555 1555 1556 1557 1558 1559 1559 1560 1561 1561 1562 1562 1563 1564 1564 1565 1566 1567 1568
1477 1478 1485 1489 1495 1497 1496 1499 1502 1507 1510 1514 1517 1524 1533 1538 1540 1542 1544 1546 1548 1549 1551 1551 1552 1552 1553 1554 1555 1556 1557 1558 1559 1560 1560 1561 1562 1563 1563 1564 1565 1565 1566 1566 1567 1568 1569 1569 1570
1476 1481 1490 1490 1493 1496 1497 1500 1505 1509 1513 1516 1519 1525 1533 1537 1540 1543 1545 1548 1549 1551 1553 1554 1554 1555 1556 1557 1558 1559 1560 1561 1561 1562 1563 1563 1564 1565 1566 1567 1567 1568 1568 1569 1570 1570 1571 1572 1573
1477 1487 1487 1484 1487 1492 1496 1500 1504 1508 1515 1521 1526 1531 1535 1538 1541 1544 1546 1548 1550 1552 1554 1555 1556 1558 1559 1560 1560 1561 1562 1563 1564 1565 1565 1566 1567 1568 1569 1569 1569 1570 1571 1571 1572 1573 1573 1574 1574
1479 1485 1484 1485 1489 1493 1496 1499 1502 1507 1514 1522 1528 1533 1536 1539 1542 1545 1547 1549 1551 1553 1555 1556 1557 1559 1561 1561 1562 1564 1564 1565 1566 1567 1568 1569 1569 1570 1570 1570 1571 1572 1572 1573 1573 1574 1575 1575 1576
1482 1484 1486 1488 1491 1494 1496 1500 1504 1509 1516 1523 1528 1533 1537 1539 1542 1545 1548 1550 1552 1554 1556 1557 1558 1559 1561 1563 1564 1565 1566 1566 1567 1568 1569 1570 1571 1572 1572 1572 1573 1573 1574 1574 1575 1575 1576 1577 1578
1484 1486 1489 1492 1493 1496 1499 1503 1507 1513 1519 1525 1530 1534 1537 1539 1542 1545 1548 1550 1553 1555 1556 1557 1559 1560 1562 1563 1565 1566 1567 1568 1568 1569 1570 1571 1572 1573 1573 1573 1574 1575 1575 1575 1576 1577 1577 1577 1578
1485 1487 1489 1492 1495 1499 1503 1506 1510 1516 1521 1526 1530 1534 1536 1539 1542 1545 1548 1550 1552 1554 1556 1557 1559 1560 1562 1563 1565 1566 1567 1568 1569 1570 1571 1572 1572 1573 1574 1574 1575 1575 1576 1576 1576 1577 1577 1578 1578
1487 1487 1490 1491 1494 1499 1504 1509 1511 1516 1521 1526 1530 1533 1536 1540 1543 1545 1547 1550 1553 1554 1556 1557 1559 1560 1562 1563 1565 1567 1568 1569 1570 1570 1571 1572 1573 1573 1574 1575 1575 1575 1576 1576 1577 1577 1577 1577 1577
1487 1491 1499 1492 1492 1497 1506 1517 1512 1515 1520 1525 1528 1532 1536 1539 1542 1545 1547 1550 1552 1554 1556 1558 1560 1560 1562 1563 1565 1567 1568 1569 1569 1570 1571 1572 1573 1573 1574 1575 1575 1575 1576 1576 1576 1577 1577 1577 1577
1491 1499 1500 1496 1491 1494 1502 1510 1510 1514 1517 1522 1527 1531 1535 1539 1542 1545 1547 1549 1552 1554 1555 1558 1560 1560 1562 1563 1565 1566 1568 1569 1569 1570 1571 1572 1572 1573 1574 1574 1574 1575 1575 1576 1576 1576 1576 1576 1576
1496 1493 1495 1496 1492 1493 1499 1505 1506 1509 1513 1518 1524 1528 1533 1537 1540 1543 1546 1548 1551 1553 1555 1557 1559 1560 1562 1563 1564 1566 1567 1568 1569 1570 1570 1571 1572 1572 1573 1573 1573 1574 1574 1575 1575 1574 1574 1574 1575
1486 1489 1493 1491 1489 1495 1497 1501 1502 1506 1510 1515 1520 1525 1530 1535 1539 1542 1545 1548 1550 1552 1554 1556 1558 1559 1561 1562 1564 1565 1566 1567 1568 1569 1569 1570 1571 1571 1571 1572 1572 1572 1573 1573 1573 1573 1573 1573 1573
1487 1492 1493 1491 1488 1495 1497 1499 1499 1503 1507 1511 1516 1522 1527 1533 1537 1540 1544 1546 1548 1550 1552 1554 1556 1558 1560 1561 1563 1564 1566 1566 1567 1568 1568 1569 1569 1570 1570 1570 1570 1571 1571 1571 1571 1571 1571 1572 1572
1491 1493 1492 1494 1491 1492 1498 1505 1500 1501 1504 1508 1513 1518 1523 1529 1533 1538 1541 1544 1546 1548 1550 1553 1555 1556 1558 1560 1561 1563 1564 1565 1566 1566 1566 1567 1567 1568 1568 1568 1568 1569 1569 1569 1569 1569 1569 1570 1570
1497 1486 1487 1490 1497 1500 1498 1519 1505 1500 1502 1505 1510 1515 1520 1525 1530 1534 1538 1541 1544 1546 1548 1551 1553 1555 1556 1558 1559 1561 1562 1563 1564 1564 1564 1565 1565 1566 1566 1566 1566 1566 1566 1567 1567 1567 1567 1567 1567
1490 1486 1488 1491 1496 1500 1497 1511 1511 1500 1505 1503 1506 1511 1516 1521 1526 1531 1534 1538 1542 1545 1547 1548 1550 1552 1554 1556 1557 1559 1560 1561 1562 1562 1563 1563 1563 1564 1564 1564 1564 1564 1564 1564 1565 1565 1564 1565 1565
1487 1490 1493 1493 1498 1514 1501 1509 1515 1501 1500 1499 1502 1508 1513 1518 1522 1527 1531 1536 1539 1543 1545 1547 1548 1550 1552 1554 1555 1556 1558 1559 1560 1560 1561 1561 1561 1561 1562 1562 1561 1561 1562 1562 1562 1562 1562 1561 1562
1491 1502 1517 1521 1520 1516 1494 1502 1507 1494 1492 1495 1499 1504 1509 1514 1519 1524 1529 1533 1536 1540 1542 1544 1546 1548 1549 1551 1553 1554 1555 1557 1557 1558 1558 1558 1559 1559 1559 1559 1559 1559 1559 1559 1559 1559 1559 1559 1559
1492 1497 1516 1528 1524 1511 1498 1503 1496 1487 1491 1495 1499 1503 1507 1512 1516 1521 1525 1530 1533 1537 1539 1542 1544 1545 1547 1549 1551 1552 1553 1554 1555 1555 1556 1556 1557 1557 1556 1557 1557 1557 1557 1557 1557 1557 1556 1556 1556
1490 1493 1487 1500 1505 1511 1503 1496 1490 1486 1491 1495 1500 1503 1506 1510 1514 1518 1522 1526 1531 1535 1537 1540 1542 1544 1546 1547 1549 1550 1551 1552 1552 1553 1554 1554 1555 1555 1555 1555 1555 1555 1555 1555 1555 1554 1554 1554 1554
1482 1486 1492 1502 1520 1523 1509 1501 1498 1492 1492 1494 1498 1502 1505 1509 1513 1517 1521 1524 1528 1532 1536 1539 1541 1542 1544 1546 1547 1548 1549 1550 1550 1551 1552 1551 1552 1553 1553 1553 1553 1553 1553 1553 1553 1552 1553 1553 1552
1487 1488 1490 1494 1500 1516 1522 1509 1481 1486 1489 1493 1498 1502 1506 1510 1513 1517 1520 1524 1527 1531 1535 1537 1540 1541 1543 1544 1546 1547 1548 1548 1549 1549 1549 1550 1550 1551 1551 1551 1551 1551 1551 1551 1551 1551 1551 1551 1550
1479 1483 1488 1504 1507 1504 1513 1511 1481 1484 1488 1493 1498 1503 1507 1510 1513 1517 1521 1524 1527 1530 1534 1536 1538 1540 1542 1543 1545 1546 1546 1547 1547 1547 1547 1548 1548 1548 1549 1549 1549 1549 1549 1549 1549 1549 1549 1549 1549